sat.trackr.live / text

‹ back to catalog

STARLINK-32124

NORAD 60298 · 2024-132W

PAYLOAD ACTIVE UNKNOWN

§ Identity

Operator
Country
US
Launch date
2024-07-28
Launch site
AFETR
Launch vehicle
Mass (kg)
RCS (m²)

Purposes: comms

External: N2YO · Heavens-Above · Gunter

§ Orbital elements

Epoch: 2026-09-21T14:14:10.183488Z

Period
94.01 min
Inclination
53.1600°
Eccentricity
0.0001291
Mean motion
15.31702520 rev/d
Perigee alt
469.8 km
Apogee alt
471.6 km
Semi-major
6,848.9 km
B*
-4.7638e-5
RAAN
221.0934°
Arg perigee
92.3375°
Mean anomaly
267.7774°
Rev number
12,157

§ Raw data

STARLINK-321241 60298U 24132W   26264.59317342 -.00001843  00000+0 -47638-4 0  99902 60298  53.1600 221.0934 0001291  92.3375 267.7774 15.31702520121577

JSON: /api/v1/satellites/60298 · /tle

For live sub-satellite position, see the globe view (requires WebGL).

§ Visibility from observer

Set your observer location to see the next 7 days of passes ≥ 10°. The values pass through the URL so the page stays shareable.

No JS? Fill the form by hand. The geolocation button needs JavaScript.